Printer-friendly version

IAU Minor Planet Center

Minor Planet Center

MPEC 2005-X12 : COMET C/2004 YJ35 (LINEAR)

The following Minor Planet Electronic Circular may be linked-to from your own Web pages, but must not otherwise be redistributed electronically.


Read MPEC 2005-X11 Read MPEC 2005-X13


M.P.E.C. 2005-X12                                Issued 2005 Dec. 2, 21:56 UT

     The Minor Planet Electronic Circulars contain information on unusual
         minor planets and routine data on comets.  They are published
   on behalf of Commission 20 of the International Astronomical Union by the
          Minor Planet Center, Smithsonian Astrophysical Observatory,
                          Cambridge, MA 02138, U.S.A.

                  Supported in part by the Brinson Foundation
                  Supported in part by the TABASGO Foundation
             Prepared using the Tamkin Foundation Computer Network

                              MPC@CFA.HARVARD.EDU
          URL http://cfa-www.harvard.edu/iau/mpc.html  ISSN 1523-6714

                          COMET C/2004 YJ35 (LINEAR)

Observations:
    CK04Y35J  C2005 11 30.33500 12 07 23.25 -36 09 40.6          21.1 T EX012304
    CK04Y35J  C2005 12 01.33119 12 07 58.18 -36 25 32.5          21.5 T EX012304

Observer details:
304 Las Campanas Observatory.  Observer S. S. Sheppard.  2.5-m Dupont
    reflector + CCD.

Orbital elements:
    C/2004 YJ35
Epoch 2005 Mar. 11.0 TT = JDT 2453440.5
T 2005 Mar. 3.15165 TT                                  MPC
q   1.7812017            (2000.0)            P               Q
z  +0.0000712      Peri.  136.89877     -0.40187633     -0.81505673
 +/-0.0000035      Node   328.24962     +0.46164775     +0.21327131
e   0.9998732      Incl.   52.47644     +0.79080767     -0.53870017
Residuals in seconds of arc
041231 704  0.0   0.0     050110 201  0.0   0.0     050129 704  1.3+  0.0
041231 704  0.2-  0.5-    050110 557  0.1-  0.2-    050129 704  1.6+  0.3+
041231 704  0.2-  0.4-    050110 J71  0.1-  0.6-    050129 704  1.9+  1.4-
050101 201  0.2-  0.4+    050110 557  0.1-  0.2-    050131 704  0.7-  1.0-
050101 201  0.2+  0.4-    050110 557  0.1+  0.1-    050131 704  0.5-  0.9-
050101 201  0.2+  0.1+    050110 557  0.0   0.2-    050131 704  1.0-  0.6-
050101 201  0.1-  0.0     050110 A13  0.1+  0.1-    050131 704  0.1+  0.3-
050101 J95 (0.9-  2.4-)   050110 A13  0.6+  0.2-    050131 704  0.9-  0.8-
050101 J87  0.1+  0.0     050110 J71  0.4-  0.5+    050131 704  0.8-  0.2-
050101 J95  0.5-  0.2+    050110 A13  0.3+  0.3+    050131 704  1.4-  0.3-
050101 J87  0.4+  0.0     050110 A13  0.4-  0.1+    050131 704  0.2+  0.5-
050101 J87  1.6+  0.6-    050110 A13  0.2-  0.2+    050202 704  0.8-  0.1+
050101 J76  0.5-  0.4+    050111 711  0.4-  0.2-    050202 704  0.3-  0.4+
050101 J76  0.1-  0.4-    050111 711  0.1-  0.2-    050202 704  0.6-  0.2-
050101 J76  0.1+  0.3+    050111 711  0.5+  0.1+    050202 704  0.0   0.3-
050101 J76  0.1+  0.2+    050111 290  0.3-  0.3+    050202 704  0.5-  0.6+
050101 J76  0.1-  1.0-    050111 290  0.3-  0.2+    050202 704  0.2-  0.0
050102 J95  0.0   0.1+    050111 290  0.4-  0.2-    050202 704  0.5-  0.2+
050102 J95  0.0   0.1-    050111 290  0.5-  0.1+    050202 704  0.2+  0.3-
050103 201  0.0   0.6-    050111 290  0.4-  0.1+    050227 360  0.2-  0.1-
050103 201  0.2+  0.1-    050111 704  0.2-  0.5+    050227 360  0.1-  0.1+
050103 201  0.2+  0.7-    050111 704  0.4-  0.5+    050227 360  0.3-  0.1+
050103 147  0.2+  0.3-    050111 704  0.1-  0.7-    050307 360  0.2-  0.1-
050103 147  0.5+  0.4-    050111 704  0.0   0.8-    050307 360  0.3-  0.1+
050103 587  0.9+  0.8+    050111 557  0.4+  0.2-    050307 360  0.2-  0.1+
050103 587  0.3-  0.6-    050111 557  0.0   0.1-    050312 704  1.1+  0.1+
050103 147  0.7+  0.8+    050111 557  0.0   0.1-    050312 704  0.5+  0.0
050103 587  0.9+  0.6+    050111 557  0.3-  0.0     050312 704  1.9+  0.5-
050104 J95  0.2+  0.9+    050111 201  0.1-  0.2-    050312 704  0.8+  0.1+
050104 A13  0.5-  0.9-    050111 557  0.2+  0.4+    050312 704  1.0+  0.2-
050104 A13  1.9+  1.5+    050111 557  0.6+  0.4+    050330 360  0.1-  0.3-
050104 J95  0.9-  0.8+    050111 201  0.2-  0.2-    050330 360  0.0   0.1+
050104 J95  0.0   0.4-    050111 587  0.2+  0.3-    050330 360  0.0   0.2-
050104 A13  0.0   0.5+    050111 587  0.0   0.4-    050401 704  0.4+  0.1+
050104 A13 (2.4+  2.0-)   050111 587  0.5+  0.4-    050401 704  0.3+  0.5+
050106 704  0.2-  0.7-    050111 A13  1.0+  0.6+    050401 704  0.3+  0.3+
050106 704  0.8+  0.2+    050111 A13  1.0-  0.8+    050401 704  0.4+  0.3-
050106 704  0.5-  0.6-    050112 A13  1.0+  0.6+    050401 704  0.5+  1.2-
050106 704  0.5-  1.6-    050112 A13  0.2+  0.3+    050403 461  0.1+  0.4-
050106 704  0.4-  0.1+    050112 711  0.4-  0.3+    050403 461  0.0   0.3-
050106 046  0.8-  0.8-    050112 711  0.7-  0.1-    050403 461  0.2+  0.2-
050106 046  0.2+  0.2-    050112 711  0.2+  0.0     050403 461  0.2+  0.6-
050106 046  0.4-  0.7-    050112 097  0.2-  0.0     050403 461  0.4+  0.2-
050106 046  0.7+  0.4+    050112 097  0.2-  0.0     050403 461  0.2-  0.3-
050106 046  0.3+  0.9+    050112 097  0.1-  0.1+    050403 461  0.2-  0.0
050106 046  0.5+  0.0     050113 704  0.4+  0.7+    050412 703  0.1+  0.2+
050107 704  0.5-  0.2+    050113 G98  0.0   0.1+    050412 703  0.4-  0.6+
050107 704  0.4-  0.9+    050113 G98  0.8+  0.0     050412 703 (2.9-  1.3-)
050107 704  0.1+  0.2-    050113 704  0.5-  0.1+    050412 703  0.2-  0.0
050107 704  0.4+  0.2+    050113 G98  0.1+  0.2-    050419 704  0.2+  0.2-
050107 704  0.6-  0.2-    050113 G98  0.3-  0.1+    050419 704  0.1-  0.6+
050107 J87  0.2+  0.5+    050113 G98  0.3-  0.1+    050419 704  0.1-  0.2-
050107 201  0.0   0.0     050113 G98  0.3-  0.2+    050419 704  0.1-  0.7+
050107 201  0.4+  0.1+    050113 704  0.1+  0.1-    050430 703  0.4+  0.0
050107 J87  0.4+  0.6+    050113 G98  0.3-  0.0     050430 703  0.4-  0.4+
050107 201  0.4+  0.0     050113 G98  0.0   0.0     050430 703 (3.1+  0.0 )
050107 J87  0.6+  0.4+    050113 G98  0.1+  0.2-    050430 703 (2.3+  0.4+)
050108 704  0.3-  0.2-    050113 651  0.0   0.2-    050430 703  0.2-  0.3+
050108 704  0.0   0.6-    050113 651  0.2-  0.5-    050430 703  0.5-  0.0
050108 704  0.7+  1.5-    050113 651  0.2-  0.3-    050430 703  1.1-  1.8-
050108 J87  0.1-  0.6+    050113 704  0.0   0.0     050430 703  0.7-  0.9-
050108 J87  0.0   0.5+    050113 651  0.1+  0.0     050508 704  1.1+  0.3+
050108 J87  0.0   0.5+    050113 704  0.4+  0.0     050508 704  0.3+  0.1+
050108 J87  0.0   0.4+    050114 704  0.1-  1.0-    050508 704  0.2-  1.1+
050109 649  0.4+  0.3-    050114 704  0.4-  0.5-    050508 704  0.8+  0.8+
050109 649  0.4-  0.1-    050114 704  0.1-  0.3-    050508 704  0.6+  1.2+
050109 649  0.1-  0.5+    050114 704  0.2-  0.0     050511 699  1.5+  1.2+
050110 557  0.0   0.3+    050114 J87  0.3+  0.1+    050511 699  0.8+  0.1+
050110 557  0.2-  0.4-    050114 J87  0.2+  0.3+    050511 699  0.0   0.7+
050110 557  0.1+  0.2+    050122 J87  0.2-  1.1-    050511 699  0.1+  0.7+
050110 201  0.1+  0.1+    050122 J87  0.1+  0.1-    051130 304  0.5-  1.0-
050110 201  0.4-  0.3+    050122 J87  0.5-  0.4-    051201 304  0.5-  0.5-
050110 J71  0.0   0.4-    050129 704  1.4+  1.9-
050110 557  0.3+  0.5+    050129 704  0.6+  0.1-

Ephemeris:
    C/2004 YJ35 (LINEAR)
Date    TT    R. A. (2000) Decl.     Delta      r     Elong.  Phase   m1    m2
2005 11 26    12 04.70   -35 00.4    4.111    3.628    54.5    12.8        21.6
2005 12 06    12 10.52   -37 39.7    4.096    3.719    61.0    13.4        21.7
2005 12 16    12 14.90   -40 16.8    4.074    3.810    67.7    13.8        21.7
2005 12 26    12 17.61   -42 50.3    4.047    3.901    74.5    14.1        21.8
2006 01 05    12 18.35   -45 18.4    4.018    3.992    81.4    14.1        21.8
2006 01 15    12 16.84   -47 38.1    3.990    4.082    88.4    13.9        21.9
2006 01 25    12 12.86   -49 46.3    3.966    4.173    95.2    13.6        21.9
2006 02 04    12 06.29   -51 38.9    3.949    4.263   101.9    13.1        21.9
2006 02 14    11 57.21   -53 11.4    3.941    4.352   108.2    12.4        21.9
2006 02 24    11 46.01   -54 19.9    3.947    4.442   114.0    11.7        21.9
2006 03 06    11 33.38   -55 01.6    3.968    4.531   118.9    11.1        22.0
2006 03 16    11 20.30   -55 15.4    4.007    4.620   122.6    10.4        22.0
2006 03 26    11 07.80   -55 03.1    4.064    4.708   125.0    10.0        22.1
2006 04 05    10 56.78   -54 28.4    4.141    4.797   125.9     9.7        22.1
2006 04 15    10 47.90   -53 36.8    4.238    4.885   125.2     9.7        22.2
2006 04 25    10 41.44   -52 34.5    4.353    4.972   123.0     9.8        22.3
2006 05 05    10 37.46   -51 27.1    4.485    5.059   119.6    10.0        22.4
2006 05 15    10 35.80   -50 19.8    4.632    5.146   115.3    10.2        22.5

     The "original" and "future" barycentric values of 1/a are +0.000027
and +0.000806 (+/- 0.000004) AU^-1, respectively.

Brian G. Marsden             (C) Copyright 2005 MPC           M.P.E.C. 2005-X12

Read MPEC 2005-X11 Read MPEC 2005-X13


Our Web policy. Index to the CBAT/MPC/ICQ pages.


Valid HTML 4.01!